TIME,DELAY(SENSOR),PRES,OXYGEN,RAWTEMP,T(OPTODE),TCPHASE,FLUOR,BETA(BETA700),BETA(BETA412),BETA(BETA440),CDOM,C(CSC),ED(ED412.40),ED(ED444.00),ED(ED489.70),ED(ED554.30),LU(LU411.80),LU(LU443.40),LU(LU489.60),LU(LU554.10),COMP,TILTX,TILTY,CHECK
1373516201,5807,829.8099975585938000,45.5903205871582000,662.3781127929688000,4.5496501922607420,54.2018089294433600,53,100,85,78,79,15430,2147749860,2147424932,2148012608,2147874029,2147638637,2147051593,2148260096,2147194368,1807,3,13,1572
1373519797,5809,888.4899902343750000,49.9266891479492200,668.6635131835938000,4.3423371315002440,53.6602210998535160,53,101,88,79,80,15427,2147754020,2147424731,2148014107,2147875117,2147640118,2147051876,2148259163,2147194925,2482,3,13,2337
1373523397,5810,904.5800170898438000,49.9637489318847660,669.7639770507812000,4.3059940338134770,53.6723518371582000,52,99,85,79,79,15431,2147756105,2147428114,2148011282,2147877193,2147642733,2147053604,2148263131,2147191689,622,4,13,32176
1373526997,5808,940.4199829101562000,50.5985488891601560,672.0255737304688000,4.2312622070312500,53.6158981323242200,53,95,85,79,79,15431,2147755465,2147427858,2148012233,2147876132,2147642971,2147051776,2148265398,2147193060,183,4,13,62808
1373530597,5812,945.3499755859375000,50.3725700378418000,671.7791748046875000,4.2394051551818850,53.6392097473144500,52,99,86,78,79,15432,2147754386,2147426267,2148012818,2147875483,2147639597,2147052269,2148264228,2147194358,3281,4,13,35875
1373534197,5809,942.5000000000000000,50.2448806762695300,672.2852783203125000,4.2226748466491700,53.6639785766601560,53,96,84,78,78,15428,2147755593,2147425993,2148014537,2147873069,2147641024,2147055451,2148260827,2147195958,636,4,13,41336
1373537797,5808,962.5599975585938000,52.4782104492187500,675.7067260742188000,4.1094970703125000,53.4056396484375000,53,99,83,79,79,15432,2147757110,2147427465,2148015113,2147875977,2147645549,2147048996,2148260269,2147193856,815,4,13,55827
1373541397,5809,960.9699707031250000,53.1026687622070300,676.5629882812500000,4.0811519622802730,53.3330917358398440,52,98,86,79,79,15427,2147758208,2147425462,2148011209,2147874148,2147643337,2147050733,2148261622,2147193920,208,4,13,4241
1373544997,5809,973.9699707031250000,53.4828414916992200,676.9887084960938000,4.0670571327209470,53.2832603454589840,52,99,87,81,79,15426,2147754898,2147425700,2148011849,2147873380,2147644379,2147047049,2148265782,2147192868,285,4,13,19797
1373548597,5808,978.3099975585938000,53.1976013183593750,676.5062866210938000,4.0830268859863280,53.3166809082031250,53,117,87,78,79,15427,2147758427,2147424457,2148016338,2147878793,2147640146,2147052050,2148262838,2147193865,3594,4,13,27818
1373552197,5808,982.4099731445312000,52.5097885131835940,675.7772827148438000,4.1071610450744630,53.3981895446777340,52,99,86,79,79,15428,2147753974,2147424054,2148015186,2147876589,2147647606,2147049106,2148262573,2147194761,152,4,13,45366
1373555797,5812,973.4899902343750000,52.2268981933593750,675.8156738281250000,4.1058897972106930,53.4381484985351560,52,98,84,78,79,15422,2147754605,2147426038,2148014336,2147874176,2147643117,2147047076,2148261613,2147192768,182,4,13,7121
1373559397,5807,973.6699829101562000,53.0122108459472660,676.8613281250000000,4.0712761878967285,53.3474807739257800,52,104,86,80,79,15422,2147758546,2147423030,2148014107,2147873892,2147643218,2147050907,2148268324,2147195492,3534,4,13,59314
1373562997,5808,974.5399780273438000,53.1871414184570300,676.9285278320312000,4.0690479278564450,53.3239402770996100,52,99,86,79,79,15422,2147756800,2147426934,2148010944,2147873472,2147644352,2147049773,2148266148,2147193709,104,4,13,4578
1373566597,5809,984.3599853515625000,52.5798492431640600,675.9583740234375000,4.1011657714843750,53.3957901000976560,52,98,86,79,79,15420,2147758729,2147425755,2148013440,2147873947,2147641517,2147049097,2148262482,2147196260,3448,4,13,25445
1373570197,5809,984.4600219726562000,51.5782012939453100,674.5131225585938000,4.1489958763122560,53.5086212158203100,52,98,87,79,80,15418,2147756946,2147424411,2148014390,2147875392,2147644681,2147046738,2148262235,2147195483,262,4,13,28247
1373573797,5809,989.6500244140625000,52.2346916198730500,675.1737060546875000,4.1271381378173830,53.4290618896484400,53,99,86,79,79,15414,2147757385,2147425426,2148011986,2147874880,2147645275,2147052425,2148258038,2147190948,3566,4,13,51446
1373577397,5808,982.3699951171875000,51.3595314025878900,675.0549926757812000,4.1310648918151855,53.5462303161621100,52,96,102,78,80,15420,2147756498,2147425088,2148011666,2147875995,2147642212,2147049133,2148265033,2147194093,437,4,13,9599
1373580997,5810,983.6199951171875000,51.9663391113281250,676.3718872070312000,4.0874791145324710,53.4846382141113300,52,98,88,78,78,15420,2147755712,2147427730,2148014317,2147874130,2147642148,2147055204,2148259053,2147191085,232,4,13,2113
1373584597,5808,980.0800170898438000,52.7928314208984400,677.2761840820312000,4.0575351715087890,53.3854293823242200,53,98,86,79,80,15417,2147759277,2147429156,2148013165,2147875117,2147642770,2147051282,2148259026,2147194258,3173,4,13,8822
1373588197,5808,982.7100219726562000,52.5835189819335940,678.1821289062500000,4.0275311470031740,53.4243812561035160,52,99,80,78,79,15417,2147757092,2147427136,2148012004,2147874953,2147643885,2147051190,2148263158,2147191680,3302,3,13,62803
1373591797,5812,989.5000000000000000,53.1566505432128900,677.0656738281250000,4.0645070075988770,53.3312416076660160,52,97,86,78,79,15418,2147755958,2147423195,2148013312,2147874368,2147642130,2147052251,2148255579,2147195648,3313,4,13,48677
1373595397,5804,979.9899902343750000,52.3405303955078100,676.9050292968750000,4.0698261260986330,53.4410018920898440,53,97,86,78,80,15414,2147753554,2147427748,2148014134,2147874998,2147644644,2147050468,2148261723,2147195117,501,4,13,26375
1373598997,5809,979.5499877929688000,52.3154907226562500,677.3845825195312000,4.0539460182189940,53.4506607055664060,52,96,83,78,79,15418,2147758107,2147427529,2148010925,2147873261,2147643968,2147042486,2148257462,2147192365,33,4,13,54572
1373602597,5808,992.9799804687500000,52.8548583984375000,677.1538696289062000,4.0615859031677250,53.3754806518554700,52,111,84,78,80,15418,2147758326,2147427218,2148012169,2147876772,2147643968,2147051227,2148263579,2147193152,919,4,13,690
1373606197,5809,980.7700195312500000,52.5428390502929700,677.3026733398438000,4.0566601753234860,53.4149017333984400,51,97,86,79,79,15414,2147756626,2147426194,2148014299,2147875913,2147643492,2147052416,2148262445,2147195117,3306,4,13,51778
1373609797,5810,983.4500122070312000,51.7412109375000000,677.3524169921875000,4.0550122261047360,53.5218887329101560,52,98,86,78,80,15415,2147755456,2147424301,2148013833,2147872877,2147642532,2147050377,2148264192,2147193947,345,4,13,30879
1373613397,5812,986.8099975585938000,52.7487792968750000,677.0422973632812000,4.0652828216552730,53.3882484436035160,53,102,84,77,78,15415,2147755017,2147424393,2148012544,2147877010,2147642304,2147052022,2148259291,2147194596,567,4,13,62663
1373616997,5812,985.7500000000000000,52.3546905517578100,676.6961059570312000,4.0767440795898440,53.4366111755371100,52,99,83,76,79,15414,2147754825,2147426624,2148011245,2147871826,2147641892,2147051812,2148258980,2147193042,4,4,13,31182
1373620597,5808,986.1599731445312000,52.1659393310546900,677.1110839843750000,4.0630040168762210,53.4625282287597660,52,97,84,78,79,15415,2147754038,2147422262,2148013074,2147877147,2147642432,2147046354,2148262336,2147195273,3588,3,13,37866
1373624197,5806,988.0599975585938000,51.6291999816894500,677.0941162109375000,4.0635662078857420,53.5371589660644500,51,98,87,78,79,15411,2147757129,2147425325,2148013266,2147875017,2147641563,2147048320,2148265947,2147193161,190,4,13,48784
1373627797,5811,982.4600219726562000,52.1605987548828100,677.6030273437500000,4.0467109680175780,53.4724197387695300,52,99,87,79,79,15409,2147758893,2147427172,2148012196,2147876544,2147644224,2147049682,2148260361,2147195282,100,4,13,52867
1373631397,5808,989.9299926757812000,52.6002197265625000,676.4000854492188000,4.0865459442138670,53.3973617553710940,53,101,83,77,79,15410,2147756946,2147426724,2148012315,2147876617,2147643666,2147050560,2148262500,2147196598,3464,4,13,42967
1373634997,5808,993.4299926757812000,52.0107994079589840,676.3046264648438000,4.0897059440612790,53.4743995666503900,52,99,84,80,79,15413,2147755273,2147424722,2148011273,2147876269,2147644032,2147050587,2148264274,2147196114,3566,4,13,46243
1373638597,5810,988.8800048828125000,52.0772209167480500,676.2227783203125000,4.0924148559570310,53.4633407592773440,51,96,81,78,79,15408,2147752914,2147427547,2148010733,2147874148,2147639195,2147057764,2148262738,2147195556,160,4,13,55006
1373642197,5807,989.0900268554688000,52.7662811279296900,676.1008300781250000,4.0964531898498535,53.3694496154785160,52,100,87,78,79,15409,2147758573,2147425417,2148013129,2147876406,2147647250,2147053339,2148258048,2147193508,68,4,13,43941
1373645797,5808,995.8599853515625000,52.4033813476562500,676.0729980468750000,4.0973739624023440,53.4210510253906250,52,99,87,78,80,15399,2147756150,2147425792,2148015680,2147876617,2147643757,2147052333,2148261787,2147197110,3513,3,13,48555
1373649397,5805,992.0499877929688000,52.4583702087402340,676.0147094726562000,4.0993041992187500,53.4072914123535160,52,98,86,80,79,15397,2147754834,2147425673,2148011072,2147874724,2147646125,2147055670,2148259849,2147198445,124,4,13,63316
1373652997,5808,998.0800170898438000,52.8239707946777340,675.9868774414062000,4.1002240180969240,53.3603591918945300,53,97,90,79,79,15399,2147752722,2147427501,2148011812,2147874797,2147644928,2147054418,2148262464,2147197193,165,4,13,6748
1373656597,5811,991.8300170898438000,52.4138793945312500,675.7493286132812000,4.1080880165100100,53.4123802185058600,52,98,84,79,79,15400,2147756964,2147425097,2148012580,2147874157,2147643986,2147050779,2148265901,2147195776,428,4,13,36340
1373659855,5813,993.0499877929688000,52.6718788146972660,676.3405761718750000,4.0885162353515625,53.3877105712890600,53,97,89,79,80,15406,2147757129,2147425892,2148010541,2147874294,2147643446,2147060068,2148260096,2147195446,164,4,13,11283
